Regional Weather Roundup
Issued by NWS Sterling, VA

Home | Current Version | Previous Version | Text Only | Print | Product List | Glossary Off
Versions: 1 2 3 4 5 6 7 8 9 10 11 12 13 14 15 16 17 18 19 20 21 22 23 24 25 26 27 28 29 30 31 32 33 34 35 36 37 38 39 40 41 42 43 44 45 46 47 48

000
ASUS41 KLWX 250510
RWRLWX

REGIONAL WEATHER ROUNDUP
NATIONAL WEATHER SERVICE BALTIMORE MD/WASHINGTON DC
100 AM EDT SAT APR 25 2015

Note: "FAIR" indicates few or no clouds below 12,000 feet
with no significant weather and/or obstructions to visibility.
 TC=TEMPERATURE CELSIUS

 * =Non NWS site. Station does not report precipitation (e.g. rain,
    snow, etc.), thunder, or fog.

DCZ001-MDZ009-015-VAZ040>042-051-053>054-250600-
WASHINGTON METRO

CITY           SKY/WX    TMP DP  RH WIND       PRES   REMARKS
WASHINGTON NAT MOCLDY    50  28  42 N7        29.97R
DULLES         PTCLDY    40  29  64 W3        29.96R
ANDREWS AFB    CLEAR     44  26  49 N5        29.95R
FT BELVOIR     CLEAR     39  31  73 NW3       29.97R
QUANTICO       CLEAR     45  33  63 NW8       29.98R
COLLEGE PARK*  CLEAR     41  32  70 CALM      29.97R
LEESBURG*      PTCLDY    46  30  53 N5        29.98R
MANASSAS*      CLEAR     39  34  81 CALM      29.97S
GAITHERSBURG*  PTCLDY    39  25  56 CALM      30.00R

$$

MDZ006>007-011-014-250600-
BALTIMORE METRO

CITY           SKY/WX    TMP DP  RH WIND       PRES   REMARKS
BWI AIRPORT    PTCLDY    40  29  64 NW5       29.96R
MD SCIENCE CTR   N/A     50  23  34 MISG      29.97R
MARTIN STATE   PTCLDY    41  30  65 W3        29.98R
ANNAPOLIS      PTCLDY    46  30  53 CALM      29.96R
FORT MEADE*    PTCLDY    36  30  80 CALM      29.98S

$$

MDZ012-015-019>023-250600-
MARYLAND EASTERN SHORE

CITY           SKY/WX    TMP DP  RH WIND       PRES   REMARKS
OCEAN CITY     CLEAR     36  31  82 CALM      29.94S
SALISBURY      PTCLDY    36  31  82 CALM      29.94S
BAY BRIDGE AP*   N/A    N/A N/A N/A NW6       29.97R
CAMBRIDGE*     CLEAR     43  32  65 CALM      29.95R
EASTON*        CLEAR     46  32  56 N6        29.99R

$$

MDZ017>025-250600-
SOUTHERN MARYLAND

CITY           SKY/WX    TMP DP  RH WIND       PRES   REMARKS
PATUXENT RIVER CLEAR     39  31  72 NW6       29.95S
ST INIGOES     CLEAR     40  33  76 CALM      29.95S
LEONARDTOWN*   NOT AVBL

$$

MDZ003>005-250600-
NORTH CENTRAL MARYLAND

CITY           SKY/WX    TMP DP  RH WIND       PRES   REMARKS
FREDERICK*     PTCLDY    37  28  70 NW6       30.00R
HAGERSTOWN APT CLEAR     45  17  32 N5        29.97R
WESTMINSTER*   PTCLDY    45  18  33 CALM      29.96R

$$

MDZ501>502-250600-
WESTERN MARYLAND

CITY           SKY/WX    TMP DP  RH WIND       PRES   REMARKS
OAKLAND*       CLEAR     36  21  55 N3        29.94S
CUMBERLAND*    CLEAR     45  23  42 CALM      30.02R

$$

VAZ025>031-250600-
SHENANDOAH VALLEY

CITY           SKY/WX    TMP DP  RH WIND       PRES   REMARKS
WINCHESTER*    CLEAR     43  21  42 CALM      29.97R
FRONT ROYAL*   FAIR      37  28  70 CALM      29.96R
LURAY*         FAIR      43  32  65 CALM      29.97S
NEW MARKET*    FAIR      37  31  78 CALM      29.97R
STAUNTON*      MOCLDY    47  22  38 CALM      29.98S
WAYNESBORO*    MOCLDY    44  24  46 CALM      29.96S

$$

WVZ021-048>050-054>055-250600-
EASTERN WEST VIRGINIA PANHANDLE

CITY           SKY/WX    TMP DP  RH WIND       PRES   REMARKS
MARTINSBURG    CLEAR     47  18  31 N9        29.98R
PETERSBURG*    PTCLDY    38  28  68 CALM      29.99R

$$

VAZ036>039-050-250600-
CENTRAL FOOTHILLS

CITY           SKY/WX    TMP DP  RH WIND       PRES   REMARKS
CHARLOTTESVILL PTCLDY    46  21  37 N6        29.96R
CULPEPER*      CLEAR     39  32  75 CALM      29.98R
ORANGE*        PTCLDY    41  32  70 CALM      29.98R
GORDONSVILLE*  FAIR      39  29  67 CALM      29.96R
WARRENTON*     FAIR      36  33  92 CALM      29.96S

$$

VAZ055>057-250600-
NORTH AND CENTRAL PIEDMONT

CITY           SKY/WX    TMP DP  RH WIND       PRES   REMARKS
FREDERICKSBRG* CLEAR     41  32  69 NW3       29.95F
STAFFORD*      FAIR      35  29  79 NW3       30.00S

$$

NCZ024-NYZ072-PAZ021-071-VAZ022-071-250600-
OTHER REGIONAL OBSERVATIONS

CITY           SKY/WX    TMP DP  RH WIND       PRES   REMARKS
NEW YORK CITY  CLEAR     39  20  46 VRB5      29.95F
PHILADELPHIA   PTCLDY    43  20  39 N12       29.97S
PITTSBURGH     CLOUDY    41  19  41 NE5       29.99R
ROANOKE        MOCLDY    50  24  36 NW3       29.96F
RICHMOND       MOCLDY    47  33  58 CALM      29.97R
RALEIGH        MOCLDY    49  39  68 CALM      29.95F

$$

ANZ530>537-250600-
MARINE OBSERVATIONS

STATION/POSITION TIME  TEMP    WIND        PRES
                       AIR SEA DIR/SP/G
                 (UTC) (F)     (DEG/KT/KT) (MB)
THOMAS PT LIGHT  0500   52 52  330/  8/  9 1015.1R
BALT KEY BRIDGE  0400   52     280/  5/  5 1014.1R
COVE POINT       0400   52     320/  7/  8 1014.7S
LEWISETTA        0400   49 57              1014.1S
SOLOMONS ISLAND  0412      56                N/A
PINEY POINT      0400          230/  4/  5   N/A

$$




USA.gov is the U.S. government's official web portal to all federal, state and local government web resources and services.